P/2016 A3 ( PanSTARRS )

Japanese version
Home page
Updated on March 3, 2018

---------------------------------------------------------------------

* Profile

Discovery Date January 4, 2016
Magnitude 20.5 mag
Discoverer Pan-STARRS 1 telescope (Haleakala)

* Pictures

* Orbital Elements

Epoch 2017 Mar. 28.0 TT = JDT 2457840.5
T 2017 Apr. 13.57047 TT                                 MPCW
q   4.7895376            (2000.0)            P               Q
n   0.04592616     Peri.  338.46929     -0.97083933     -0.23887300
a   7.7225839      Node   187.79424     +0.23593109     -0.93703911
e   0.3798012      Incl.    8.59399     +0.04251483     -0.25474969
P  21.46
From 111 observations 2016 Jan. 4-2017 May 28, mean residual 0".5.

* Magnitudes Graph

        m1 = 2.0 + 5 log d + 20.0 log r

---------------------------------------------------------------------

The orbital elements are published on M.P.E.C. 2017-L52.
The magnitudes graphs are made with Comet for Windows.

---------------------------------------------------------------------

Copyright(C) Seiichi Yoshida (comet@aerith.net). All rights reserved.